Location: Unspecified
(48.5539°N, 71.6350°W)
Time: 04:43:06
(UTC-04:00)

ISS - Pass Details

Date: 27 May 2019
Orbit: 408 x 418 km, 51.6° (Epoch: 19 June)

Event Time Altitude Azimuth Distance (km) Brightness Sun altitude
Rises 23:32:46 0° 291° (WNW) 2,362 0.6 -18.3°
Reaches altitude 10° 23:34:54 10° 286° (WNW) 1,498 -0.5 -18.4°
Enters shadow 23:37:56 49° 227° (SW) 550 -3.4 -18.5°
